Starlink 11332

operational
NORAD ID: 61539 Int'l Des: 2024-184 Owner: SPXS Country: US Constellation: starlink
LEOCIRCULAR

Starlink 11332について

説明を読み込み中...

リアルタイム位置

3D地球を読み込み中...

次回通過

高度履歴

Altitude vs Time

uPlot chart will show altitude changes over time

軌道要素

1 61539U 24184H 26035.40400521 .00007344 00000-0 65441-4 0 9997
2 61539 53.1576 40.0595 0001515 103.3474 256.7713 15.69703604 75194
Epoch: Feb 4, 2026 • Age: 28 hours

現在のステータス

高度 360.4 km
速度 7.69 km/s
衛星直下点 -0.80°S, 130.41°W
打ち上げ日 Oct 15, 2024
運用期間 1.3 years
タイプ internet

技術仕様

分類 Payload
質量 960.00 kg
乾燥質量 910.00 kg
総質量 960.00 kg
長さ 0.30 m
直径 4.10 m
スパン 29.00 m
形状 Box + pan
製造者 SPXS
バスタイプ Starlink V2MD
フェーズステータス In Orbit
所有者/国 SPXS/US

大規模コンステレーション

Loading constellations...